Simultaneous Nadir Overpasses (SNOs) Predictions

Prediction of SNOs between FY3D and METOP-C Satellite Orbit:

Table of predicted SNOs for the next 14.0 days since TLE Epoch: 9/21/2019
Index Date (FY3D) Time (FY3D) Lat,Lon (FY3D) SZA (FY3D ) Date (METOP-C) Time (METOP-C) Lat,Lon (METOP-C) SZA (METOP-C ) Distance(km) Time Diff (sec)
1 09/21/2019 16:09:56 73.60, -71.44 73.01 09/21/2019 16:11:04 73.52, -69.11 72.85 73.72 68
2 09/21/2019 17:00:38 -73.54, 96.01 107.05 09/21/2019 17:01:47 -73.50, 98.16 107.16 68.00 69
3 09/21/2019 17:51:20 73.34, -96.23 72.76 09/21/2019 17:52:31 73.25, -95.06 72.62 38.49 71
4 09/21/2019 18:42:02 -73.28, 71.22 107.29 09/21/2019 18:43:14 -73.23, 72.22 107.39 32.48 72
5 09/21/2019 19:32:44 73.08,-121.03 72.51 09/21/2019 19:33:57 73.02,-120.89 72.44 7.79 73
6 09/21/2019 20:23:26 -73.03, 46.41 107.54 09/21/2019 20:24:40 -73.01, 46.39 107.57 2.30 74
7 09/21/2019 21:14:12 73.02,-146.27 72.47 09/21/2019 21:15:19 73.00,-146.28 72.44 2.38 67
8 09/21/2019 22:04:55 -73.02, 21.06 107.52 09/21/2019 22:06:01 -73.04, 21.12 107.52 2.66 66
9 09/21/2019 22:55:40 73.02,-171.63 72.49 09/21/2019 22:56:39 73.03,-171.55 72.50 3.00 59
10 09/21/2019 23:46:23 -73.01, -4.30 107.50 09/21/2019 23:47:22 -73.01, -4.27 107.51 1.03 59
11 09/22/2019 00:37:09 73.01, 163.01 72.51 09/22/2019 00:38:01 73.01, 163.06 72.51 1.55 52
12 09/22/2019 01:27:52 -73.01, -29.66 107.48 09/22/2019 01:28:44 -72.99, -29.65 107.50 1.32 52
13 09/22/2019 02:18:38 73.00, 137.66 72.53 09/22/2019 02:19:23 72.99, 137.67 72.51 1.68 45
14 09/22/2019 03:09:21 -73.00, -55.01 107.46 09/22/2019 03:10:06 -72.97, -55.04 107.50 3.03 45
15 09/22/2019 04:00:07 73.00, 112.30 72.55 09/22/2019 04:00:45 72.97, 112.29 72.52 3.21 38
16 09/22/2019 04:50:50 -72.99, -80.37 107.44 09/22/2019 04:51:27 -73.00, -80.32 107.44 2.00 37
17 09/22/2019 05:41:36 72.99, 86.94 72.57 09/22/2019 05:42:06 73.00, 87.01 72.57 2.33 30
18 09/22/2019 06:32:19 -72.98,-105.72 107.43 09/22/2019 06:32:49 -72.98,-105.70 107.43 0.82 30
19 09/22/2019 07:23:05 72.98, 61.59 72.59 09/22/2019 07:23:28 72.98, 61.63 72.58 1.45 23
20 09/22/2019 08:13:48 -72.98,-131.08 107.41 09/22/2019 08:14:11 -72.96,-131.09 107.43 2.02 23
21 09/22/2019 09:04:34 72.98, 36.23 72.61 09/22/2019 09:04:50 72.95, 36.24 72.59 2.40 16
22 09/22/2019 09:55:17 -72.97,-156.44 107.39 09/22/2019 09:55:32 -72.99,-156.37 107.37 3.07 15
23 09/22/2019 10:46:03 72.97, 10.88 72.63 09/22/2019 10:46:11 72.98, 10.96 72.64 3.26 8
24 09/22/2019 11:36:46 -72.96, 178.21 107.37 09/22/2019 11:36:54 -72.97, 178.25 107.36 1.43 8
25 09/22/2019 12:27:32 72.96, -14.48 72.65 09/22/2019 12:27:33 72.96, -14.42 72.65 1.86 1
26 09/22/2019 13:18:15 -72.95, 152.85 107.35 09/22/2019 13:18:16 -72.94, 152.86 107.36 1.18 1
27 09/22/2019 14:09:01 72.95, -39.84 72.67 09/22/2019 14:08:55 72.94, -39.81 72.66 1.82 6
28 09/22/2019 14:59:44 -72.95, 127.50 107.33 09/22/2019 14:59:38 -72.92, 127.48 107.35 2.74 6
29 09/22/2019 15:50:30 72.95, -65.19 72.69 09/22/2019 15:50:17 72.92, -65.19 72.66 3.19 13
30 09/22/2019 16:41:13 -72.94, 102.14 107.31 09/22/2019 16:40:59 -72.95, 102.20 107.30 2.43 14
31 09/22/2019 17:31:59 72.94, -90.55 72.71 09/22/2019 17:31:38 72.95, -90.47 72.72 2.64 21
32 09/22/2019 18:22:42 -72.93, 76.78 107.29 09/22/2019 18:22:21 -72.93, 76.82 107.29 1.10 21
33 09/22/2019 19:13:28 72.93,-115.91 72.73 09/22/2019 19:13:00 72.93,-115.86 72.72 1.74 28
34 09/22/2019 20:04:11 -72.93, 51.43 107.27 09/22/2019 20:03:43 -72.91, 51.43 107.28 1.80 28
35 09/22/2019 20:54:57 72.93,-141.26 72.75 09/22/2019 20:54:22 72.90,-141.24 72.73 2.46 35
36 09/22/2019 21:45:40 -72.92, 26.07 107.25 09/22/2019 21:45:05 -72.89, 26.05 107.27 3.46 35
37 09/22/2019 22:36:26 72.92,-166.62 72.77 09/22/2019 22:35:43 72.93,-166.52 72.79 3.56 43
38 09/22/2019 23:27:09 -72.91, 0.72 107.23 09/22/2019 23:26:26 -72.92, 0.77 107.22 1.87 43
39 09/23/2019 00:17:55 72.91, 168.03 72.79 09/23/2019 00:17:05 72.91, 168.09 72.79 2.22 50
40 09/23/2019 01:08:38 -72.90, -24.64 107.21 09/23/2019 01:07:48 -72.90, -24.62 107.21 1.22 50
41 09/23/2019 01:59:24 72.90, 142.67 72.81 09/23/2019 01:58:27 72.89, 142.71 72.80 2.03 57
42 09/23/2019 02:50:07 -72.90, -50.00 107.19 09/23/2019 02:49:10 -72.88, -50.00 107.21 2.48 57
43 09/23/2019 03:40:53 72.90, 117.31 72.83 09/23/2019 03:39:49 72.87, 117.32 72.81 3.21 64
44 09/23/2019 04:31:36 -72.89, -75.35 107.17 09/23/2019 04:30:31 -72.90, -75.28 107.15 2.89 65
45 09/23/2019 05:22:22 72.89, 91.96 72.85 09/23/2019 05:21:10 72.90, 92.04 72.86 3.00 72
46 09/23/2019 06:13:05 -72.88,-100.71 107.15 09/23/2019 06:11:53 -72.88,-100.66 107.14 1.50 72
47 09/23/2019 07:03:48 72.73, 66.92 72.71 09/23/2019 07:02:35 72.72, 66.34 72.73 19.02 73
48 09/23/2019 07:54:31 -72.72,-125.75 107.29 09/23/2019 07:53:18 -72.71,-126.36 107.28 20.35 73
49 09/23/2019 08:45:12 72.47, 42.08 72.46 09/23/2019 08:44:02 72.45, 40.44 72.50 54.92 70
50 09/23/2019 09:35:55 -72.46,-150.59 107.54 09/23/2019 09:34:45 -72.43,-152.26 107.51 56.07 70
51 09/23/2019 10:26:35 72.16, 17.32 72.16 09/23/2019 10:25:29 72.17, 14.56 72.27 94.25 66
52 09/23/2019 11:17:18 -72.15,-175.35 107.84 09/23/2019 11:16:12 -72.16,-178.14 107.74 95.17 66




NCC Satellite Simultaneous Nadir Overpasses (SNOs) Prediction Service
